K7CTD Weather Reports


Display with metric or nautical units.
time (UTC)temp
F
wind
direction
speed
MPH
gust
MPH
rain 1hr
in
rain 24hr
in
rain mn
in
humidity
%
barometer
mb
20260502234614 72 100 0.0 1.0 0.00 0.00 0.00 21 1015.3
20260502233108 72 53 0.0 2.0 0.00 0.00 0.00 23 1015.4
20260502231605 72 144 0.0 1.0 0.00 0.00 0.00 24 1015.6
20260502230052 71 217 0.0 4.0 0.00 0.00 0.00 24 1015.7
20260502224550 72 243 0.0 6.0 0.00 0.00 0.00 26 1016.0
20260502223052 72 146 1.0 4.0 0.00 0.00 0.00 27 1015.9
20260502221600 72 258 0.0 4.0 0.00 0.00 0.00 28 1016.1
20260502220047 72 220 2.0 8.0 0.00 0.00 0.00 26 1016.3
20260502214545 72 71 2.0 6.0 0.00 0.00 0.00 25 1016.6
20260502213051 71 272 1.0 4.0 0.00 0.00 0.00 27 1016.8
20260502211546 71 132 0.0 5.0 0.00 0.00 0.00 24 1016.9
20260502210044 71 259 1.0 7.0 0.00 0.00 0.00 25 1017.2
20260502204546 71 232 3.0 8.0 0.00 0.00 0.00 29 1017.3
20260502203034 71 104 0.0 4.0 0.00 0.00 0.00 29 1017.4
20260502201534 71 274 2.0 5.0 0.00 0.00 0.00 29 1017.5
20260502200032 70 141 0.0 7.0 0.00 0.00 0.00 29 1017.8
20260502194530 70 230 1.0 8.0 0.00 0.00 0.00 31 1017.9
20260502193027 69 143 0.0 9.0 0.00 0.00 0.00 28 1018.1
20260502191525 68 263 2.0 8.0 0.00 0.00 0.00 31 1018.2
20260502190022 69 207 2.0 11.0 0.00 0.00 0.00 30 1018.4
20260502184522 68 250 0.0 10.0 0.00 0.00 0.00 32 1018.5
20260502183016 67 239 1.0 6.0 0.00 0.00 0.00 36 1018.8
20260502181512 66 264 0.0 8.0 0.00 0.00 0.00 33 1019.1
20260502163054 58 225 1.0 5.0 0.00 0.00 0.00 60 1020.0
20260502161551 56 186 0.0 2.0 0.00 0.00 0.00 61 1020.3
20260502151528 48 204 0.0 1.0 0.00 0.00 0.00 74 1020.6
20260502123014 38 91 0.0 0.0 0.00 0.00 0.00 86 1020.7
20260502121508 37 92 0.0 0.0 0.00 0.00 0.00 86 1020.6
20260502114505 37 91 0.0 0.0 0.00 0.00 0.00 87 1020.7
20260502113004 37 91 0.0 0.0 0.00 0.00 0.00 86 1020.7
20260502111501 37 91 0.0 0.0 0.00 0.00 0.00 86 1020.5
20260502110100 38 94 0.0 0.0 0.00 0.00 0.00 86 1020.6
20260502104559 38 94 0.0 0.0 0.00 0.00 0.00 85 1020.7
20260502103103 38 94 0.0 0.0 0.00 0.00 0.00 85 1020.7
20260502101556 38 56 0.0 0.0 0.00 0.00 0.00 84 1020.7
20260502100115 38 56 0.0 0.0 0.00 0.00 0.00 84 1020.7
20260502070029 41 56 0.0 0.0 0.00 0.00 0.00 78 1020.9
20260502064526 42 56 0.0 0.0 0.00 0.00 0.00 77 1020.9
20260502063025 42 56 0.0 0.0 0.00 0.00 0.00 76 1020.8
20260502061523 42 56 0.0 0.0 0.00 0.00 0.00 76 1020.7
20260502060019 43 56 0.0 0.0 0.00 0.00 0.00 76 1020.8
20260502054521 43 56 0.0 0.0 0.00 0.00 0.00 74 1020.8
20260502053017 44 56 0.0 0.0 0.00 0.00 0.00 73 1020.9
20260502051532 44 56 0.0 0.0 0.00 0.00 0.00 70 1020.9
20260502050017 45 56 0.0 0.0 0.00 0.00 0.00 71 1020.8
20260502044517 46 56 0.0 0.0 0.00 0.00 0.00 67 1020.8
20260502043016 46 56 0.0 0.0 0.00 0.00 0.00 67 1020.8
20260502041516 47 56 0.0 0.0 0.00 0.00 0.00 66 1020.5
20260502040015 48 56 0.0 0.0 0.00 0.00 0.00 61 1020.4
20260502034520 49 56 0.0 0.0 0.00 0.00 0.00 63 1020.0
20260502033024 50 56 0.0 1.0 0.00 0.00 0.00 57 1019.7
20260502031514 51 56 0.0 1.0 0.00 0.00 0.00 53 1019.5
20260502030014 52 55 0.0 1.0 0.00 0.00 0.00 53 1019.4
20260502024513 53 56 0.0 1.0 0.00 0.00 0.00 49 1019.3
20260502023014 54 56 0.0 2.0 0.00 0.00 0.00 51 1019.3
20260502021511 55 89 0.0 0.0 0.00 0.00 0.00 50 1019.2
20260502020011 57 89 0.0 1.0 0.00 0.00 0.00 47 1019.3
20260502014514 58 89 0.0 1.0 0.00 0.00 0.00 45 1019.3
20260502013008 59 89 0.0 1.0 0.00 0.00 0.00 44 1019.3
20260502011508 61 114 0.0 1.0 0.00 0.00 0.00 40 1019.4
20260502010007 63 114 0.0 1.0 0.00 0.00 0.00 38 1019.5
20260502004507 64 114 0.0 0.0 0.00 0.00 0.00 32 1019.5
20260502003015 65 114 0.0 1.0 0.00 0.00 0.00 29 1019.6
20260502001505 65 115 0.0 1.0 0.00 0.00 0.00 30 1019.7
20260502000005 65 140 0.0 2.0 0.00 0.00 0.00 30 1019.8